Location: Blienschwiller
(48.3416°N, 7.4182°E)
Time: 02:21:29
(UTC+00:00)

Cosmos 1656 Rocket - Pass Details

Date: 18 February 2020
Orbit: 794 x 848 km, 71.1° (Epoch: 03 April)

Event Time Altitude Azimuth Distance (km) Brightness Sun altitude
Rises 04:53:57 0° 333° (NNW) 3,404 6.6 -17.2°
Reaches altitude 10° 04:56:25 10° 335° (NNW) 2,471 5.9 -16.7°
Maximum altitude 05:02:06 75° 61° (ENE) 880 3.9 -15.8°
Drops below altitude 10° 05:07:47 10° 147° (SSE) 2,468 6.6 -14.8°
Sets 05:10:14 0° 149° (SSE) 3,398 7.3 -14.4°
